Weather History for KPGD - October, 2012

Change the Weather History Date:

Tuesday, October 9, 2012

  Actual Average (KFMY) Record (KFMY)
Temperature  
Mean Temperature 80 °F 80 °F  
Max Temperature 91 °F 88 °F 94 °F (2009)
Min Temperature 72 °F 71 °F 57 °F (2000)
Degree Days  
Heating Degree Days 0 0  
Month to date heating degree days 0  
Since 1 July heating degree days 0  
Cooling Degree Days 16 14  
Month to date cooling degree days 137  
Year to date cooling degree days 3383  
Growing Degree Days 30 (Base 50)    
Moisture  
Dew Point 72 °F    
Average Humidity 75    
Maximum Humidity 93    
Minimum Humidity 52    
Precipitation  
Precipitation 0.01 in 0.10 in 2.20 in (1953)
Month to date precipitation 1.16  
Year to date precipitation 50.54  
Sea Level Pressure  
Sea Level Pressure 30.03 in    
Wind  
Wind Speed 3 mph (NE)    
Max Wind Speed 9 mph    
Max Gust Speed -    
Visibility 10 miles    
Events      
T = Trace of Precipitation, MM = Missing Value Source: NWS Daily Summary

Daily Weather History Graph

Daily Weather History Graph

Search for Another Location

Airport or City:

Trip Planner

Search our weather history database for the weather conditions in past years. The results will help you decide how hot, cold, wet, or windy it might be!

Date:

Astronomy

Oct. 09, 2012 Rise Set
Actual Time 7:24 AM EDT 7:05 PM EDT
Civil Twilight 7:01 AM EDT 7:28 PM EDT
Nautical Twilight 6:34 AM EDT 7:55 PM EDT
Astronomical Twilight 6:07 AM EDT 8:22 PM EDT
Moon 1:32 AM EDT (10/9) 3:02 PM EDT (10/9)
Length of Visible Light 12h 27m
Length of Day
11h 40m
Last Quarter, 37% of the Moon is Illuminated
Oct 9
Last Quarter
Oct 15
New
Oct 21
First Quarter
Oct 29
Full
Nov 6
Last Quarter

Hourly Weather History & Observations

Time (EDT) Temp. Heat Index Dew Point Humidity Pressure Visibility Wind Dir Wind Speed Gust Speed Precip Events Conditions
1:53 AM 73.9 °F - 72.0 °F 93% 30.01 in 10.0 mi Calm Calm - N/A   Clear
2:53 AM 73.9 °F - 71.1 °F 91% 30.01 in 10.0 mi ENE 3.5 mph - N/A   Clear
5:53 AM 73.0 °F - 70.0 °F 90% 30.00 in 10.0 mi Calm Calm - N/A   Clear
6:53 AM 72.0 °F - 70.0 °F 93% 30.01 in 10.0 mi NNE 3.5 mph - N/A   Clear
7:53 AM 73.0 °F - 71.1 °F 93% 30.02 in 10.0 mi Calm Calm - 0.01 in   Clear
8:53 AM 77.0 °F - 71.1 °F 82% 30.04 in 10.0 mi NE 3.5 mph - N/A   Clear
9:53 AM 80.1 °F 83.8 °F 72.0 °F 76% 30.05 in 10.0 mi East 4.6 mph - N/A   Clear
10:53 AM 82.9 °F 88.8 °F 73.0 °F 72% 30.06 in 10.0 mi Calm Calm - N/A   Clear
11:53 AM 86.0 °F 93.0 °F 73.0 °F 65% 30.06 in 10.0 mi ENE 4.6 mph - N/A   Scattered Clouds
12:53 PM 87.1 °F 92.8 °F 71.1 °F 59% 30.04 in 10.0 mi East 4.6 mph - N/A   Scattered Clouds
1:53 PM 87.1 °F 92.8 °F 71.1 °F 59% 30.03 in 10.0 mi NE 5.8 mph - N/A   Mostly Cloudy
2:53 PM 89.1 °F 94.1 °F 70.0 °F 53% 30.01 in 10.0 mi North 5.8 mph - N/A   Partly Cloudy
3:53 PM 89.1 °F 93.7 °F 69.1 °F 52% 30.00 in 10.0 mi NNE 4.6 mph - N/A   Mostly Cloudy
4:53 PM 89.1 °F 94.1 °F 70.0 °F 53% 29.99 in 10.0 mi North 6.9 mph - N/A   Scattered Clouds
5:53 PM 86.0 °F 91.5 °F 71.1 °F 61% 29.99 in 10.0 mi WNW 3.5 mph - N/A   Scattered Clouds
6:53 PM 84.9 °F 91.4 °F 73.0 °F 67% 30.00 in 10.0 mi NW 4.6 mph - N/A   Mostly Cloudy
7:53 PM 82.0 °F 88.6 °F 75.0 °F 79% 30.01 in 10.0 mi NNW 4.6 mph - N/A   Scattered Clouds
8:53 PM 82.0 °F 87.9 °F 73.9 °F 76% 30.03 in 10.0 mi North 4.6 mph - N/A   Mostly Cloudy
9:53 PM 80.1 °F 84.5 °F 73.9 °F 81% 30.06 in 10.0 mi East 6.9 mph - N/A   Scattered Clouds
10:53 PM 79.0 °F - 73.9 °F 84% 30.07 in 10.0 mi East 9.2 mph - N/A   Mostly Cloudy
11:10 PM 78.8 °F - 73.4 °F 83% 30.07 in 10.0 mi East 9.2 mph - N/A   Scattered Clouds
11:53 PM 78.1 °F - 73.0 °F 84% 30.07 in 10.0 mi ENE 6.9 mph - N/A   Mostly Cloudy